Weather History for KGPI - June, 2013

Change the Weather History Date:

Tuesday, June 25, 2013

  Actual Average Record
Temperature  
Mean Temperature 62 °F 60 °F  
Max Temperature 70 °F 75 °F 93 °F (1962)
Min Temperature 54 °F 46 °F 31 °F (1985)
Degree Days  
Heating Degree Days 3 6  
Month to date heating degree days 180 190  
Since 1 June heating degree days 180 190  
Since 1 July heating degree days 7446 8013  
Cooling Degree Days 0 1  
Month to date cooling degree days 3 6  
Year to date cooling degree days 3 9  
Since 1 June cooling degree days 3 6  
Growing Degree Days 11 (Base 50)    
Moisture  
Dew Point 52 °F    
Average Humidity 69    
Maximum Humidity 93    
Minimum Humidity 44    
Precipitation  
Precipitation 0.21 in 0.08 in 0.80 in (1914)
Month to date precipitation 2.71 2.19  
Year to date precipitation 9.01 8.80  
Snow  
Snow 0.00 in - - ()
Month to date snowfall 0.0  
Year to date snowfall 10.1  
Since 1 July snowfall 18.9  
Snow Depth 0.00 in    
Sea Level Pressure  
Sea Level Pressure 29.80 in    
Wind  
Wind Speed 6 mph (South)    
Max Wind Speed 22 mph    
Max Gust Speed 29 mph    
Visibility 10 miles    
Events Rain    
T = Trace of Precipitation, MM = Missing Value Source: NWS Daily Summary

Daily Weather History Graph

Daily Weather History Graph

Search for Another Location

Airport or City:

Trip Planner

Search our weather history database for the weather conditions in past years. The results will help you decide how hot, cold, wet, or windy it might be!

Date:

Astronomy

Jun. 25, 2013 Rise Set
Actual Time 5:37 AM MDT 9:42 PM MDT
Civil Twilight 4:55 AM MDT 10:23 PM MDT
Nautical Twilight 3:57 AM MDT 11:22 PM MDT
Astronomical Twilight 2:09 AM MDT 1:08 AM MDT
Moon 11:12 PM MDT (6/25) 8:36 AM MDT (6/25)
Length of Visible Light 17h 28m
Length of Day
16h 04m
Waning Gibbous, 92% of the Moon is Illuminated
Jun 25
Waning Gibbous
Jun 29
Last Quarter
Jul 8
New
Jul 15
First Quarter
Jul 22
Full

Hourly Weather History & Observations

Time (MDT) Temp. Dew Point Humidity Pressure Visibility Wind Dir Wind Speed Gust Speed Precip Events Conditions
12:13 AM 57.2 °F 53.6 °F 88% 29.71 in 6.0 mi Calm Calm - 0.03 in Rain Rain
12:55 AM 55.9 °F 54.0 °F 93% 29.71 in 10.0 mi South 6.9 mph - 0.07 in Rain Light Rain
1:55 AM 55.9 °F 54.0 °F 93% 29.72 in 10.0 mi South 5.8 mph - 0.00 in Rain Light Rain
2:55 AM 55.9 °F 53.1 °F 90% 29.72 in 10.0 mi SSE 5.8 mph - 0.03 in Rain Light Rain
3:55 AM 55.0 °F 53.1 °F 93% 29.73 in 10.0 mi SSE 9.2 mph - 0.02 in Rain Light Rain
4:55 AM 55.0 °F 53.1 °F 93% 29.75 in 10.0 mi South 5.8 mph - 0.03 in Rain Light Rain
5:55 AM 55.0 °F 52.0 °F 89% 29.76 in 10.0 mi SSW 6.9 mph - 0.00 in   Overcast
6:55 AM 54.0 °F 52.0 °F 93% 29.78 in 10.0 mi South 5.8 mph - N/A   Overcast
7:55 AM 55.9 °F 53.1 °F 90% 29.78 in 10.0 mi South 8.1 mph - N/A   Overcast
8:55 AM 60.1 °F 52.0 °F 75% 29.80 in 10.0 mi SSW 5.8 mph - N/A   Mostly Cloudy
9:55 AM 61.0 °F 50.0 °F 67% 29.80 in 10.0 mi South 4.6 mph - N/A   Mostly Cloudy
10:55 AM 66.0 °F 45.0 °F 47% 29.81 in 10.0 mi SSW 12.7 mph - N/A   Scattered Clouds
11:55 AM 64.9 °F 43.0 °F 45% 29.81 in 10.0 mi SSW 10.4 mph - N/A   Overcast
12:55 PM 64.9 °F 43.0 °F 45% 29.81 in 10.0 mi SSW 5.8 mph - N/A   Overcast
1:55 PM 64.9 °F 48.0 °F 54% 29.81 in 10.0 mi SSE 10.4 mph - N/A   Overcast
2:55 PM 66.9 °F 46.9 °F 49% 29.78 in 10.0 mi ESE 6.9 mph - N/A   Mostly Cloudy
3:55 PM 68.0 °F 46.0 °F 45% 29.77 in 10.0 mi ESE 5.8 mph - N/A   Scattered Clouds
4:55 PM 57.0 °F 53.1 °F 87% 29.83 in 6.0 mi SSW 8.1 mph - 0.05 in Rain Rain
5:55 PM 59.0 °F 53.1 °F 81% 29.84 in 10.0 mi South 4.6 mph - 0.03 in   Overcast
6:55 PM 57.9 °F 54.0 °F 87% 29.86 in 10.0 mi SE 6.9 mph - 0.03 in Rain Light Rain
7:55 PM 59.0 °F 55.0 °F 87% 29.84 in 10.0 mi Calm Calm - 0.01 in   Overcast
8:55 PM 57.9 °F 55.9 °F 93% 29.85 in 10.0 mi North 4.6 mph - 0.00 in Rain Light Rain
9:55 PM 57.9 °F 55.9 °F 93% 29.86 in 10.0 mi Calm Calm - 0.01 in   Overcast
10:13 PM 57.2 °F 55.4 °F 94% 29.89 in 10.0 mi SSE 4.6 mph - 0.00 in   Overcast
10:21 PM 57.2 °F 55.4 °F 94% 29.89 in 10.0 mi South 5.8 mph - 0.00 in   Overcast
10:55 PM 57.0 °F 53.1 °F 87% 29.87 in 10.0 mi South 5.8 mph - 0.00 in   Overcast
11:55 PM 57.0 °F 53.1 °F 87% 29.88 in 10.0 mi SSE 8.1 mph - N/A   Overcast